Temperature
2 2 3 3 3 3 3 3 4 4 3 4 3 3 3 4 4 3 4 4 4 5 5 5 6 6 6 6 6 6 6 5 5 5 5 5 5 5 5 5 5 5 5 4
1 2 2 2 2 3 3 3 3 3 3 3 3 3 3 3 3 2 3 3 4 4 5 5 5 5 5 5 5 5 5 5 5 5 5 5 5 5 5 4 4 4 4 4
0 2 2 1 2 2 2 2 2 3 3 2 2 2 2 2 2 2 2 3 3 4 4 5 5 5 5 5 5 5 4 5 5 4 4 4 4 4 4 4 4 4 4 4
-0 0 1 2 1 2 2 2 2 2 2 1 1 1 2 2 2 2 2 3 3 4 4 4 4 4 4 4 4 4 4 4 4 4 4 4 4 4 4 4 4 4 3 3
-0 0 1 1 0 0 1 1 0 1 1 0 1 1 1 2 2 2 2 2 3 3 3 4 4 3 3 4 3 3 3 4 3 3 3 3 3 3 3 3 3 3 3 3
-1 -0 0 -0 -0 -0 1 0 -0 -0 -0 -0 -0 -0 0 1 1 1 2 2 2 3 3 3 3 3 3 3 3 3 3 3 3 3 3 3 3 3 3 3 3 2 2 2
-2 -1 -1 -1 -1 -0 0 -0 -1 -1 -1 -1 -1 -1 -0 -0 0 1 1 1 2 2 2 2 2 2 2 2 2 2 2 2 2 2 2 2 2 2 2 2 2 2 2 1
-2 -2 -2 -2 -2 -2 -2 -2 -1 -1 -1 -1 -1 -1 -1 -1 -0 0 1 1 1 1 1 1 1 1 2 2 2 2 2 2 2 2 2 2 2 2 2 1 1 1 1 1
-3 -2 -3 -3 -3 -2 -2 -2 -2 -2 -2 -2 -2 -2 -2 -1 -1 -1 -0 -0 0 0 0 1 1 1 1 1 1 1 1 1 1 1 1 1 1 1 1 1 1 1 1 1
-3 -3 -3 -3 -3 -3 -3 -3 -3 -3 -3 -2 -2 -2 -2 -2 -2 -2 -1 -1 -1 -0 -0 -0 -0 0 0 0 0 0 0 0 0 0 0 0 0 0 0 0 -0 -0 0 0
-4 -4 -4 -4 -4 -4 -4 -4 -3 -3 -3 -3 -3 -3 -3 -3 -3 -3 -2 -2 -1 -1 -1 -1 -1 -1 -0 -0 -0 -0 -0 -0 -0 -0 -0 -0 -0 -0 -0 -0 -0 -0 -0 -0
-5 -5 -5 -5 -4 -4 -4 -4 -4 -4 -4 -4 -4 -4 -4 -3 -3 -3 -3 -2 -2 -2 -2 -2 -2 -1 -1 -1 -1 -1 -1 -1 -1 -1 -1 -1 -1 -1 -1 -1 -1 -1 -1 -1
-5 -5 -5 -5 -5 -5 -5 -5 -5 -5 -5 -5 -4 -4 -4 -4 -4 -4 -3 -3 -3 -3 -3 -3 -2 -2 -2 -2 -2 -2 -1 -2 -2 -2 -1 -1 -1 -1 -1 -1 -1 -1 -1 -1
-6 -6 -6 -6 -6 -6 -6 -6 -5 -5 -5 -5 -5 -4 -4 -4 -4 -4 -4 -4 -4 -3 -3 -3 -3 -3 -3 -3 -3 -2 -2 -2 -2 -2 -2 -2 -2 -2 -2 -2 -2 -2 -2 -2
-7 -7 -7 -7 -6 -6 -6 -6 -6 -6 -6 -5 -5 -5 -5 -5 -5 -5 -5 -5 -4 -4 -4 -4 -4 -4 -4 -4 -3 -3 -3 -3 -3 -3 -3 -3 -3 -3 -3 -2 -2 -2 -2 -2
-7 -7 -7 -7 -7 -7 -7 -7 -7 -7 -7 -6 -6 -6 -6 -6 -6 -6 -5 -5 -5 -5 -5 -5 -5 -4 -4 -4 -4 -4 -3 -4 -4 -4 -4 -3 -3 -3 -3 -3 -3 -3 -3 -3
-8 -8 -8 -8 -8 -7 -7 -7 -7 -7 -7 -7 -7 -7 -7 -6 -6 -6 -6 -6 -6 -6 -6 -5 -5 -5 -5 -5 -4 -4 -4 -4 -4 -4 -4 -4 -4 -4 -4 -4 -3 -3 -3 -4
-8 -8 -8 -8 -8 -8 -8 -8 -8 -8 -8 -8 -7 -7 -7 -7 -7 -7 -7 -7 -6 -6 -6 -6 -6 -5 -5 -5 -5 -5 -5 -5 -5 -5 -5 -5 -4 -4 -4 -4 -4 -4 -4 -4
-9 -9 -9 -9 -9 -9 -9 -9 -8 -8 -8 -8 -8 -8 -8 -8 -8 -7 -7 -7 -7 -7 -6 -6 -6 -6 -6 -6 -5 -5 -5 -6 -6 -6 -5 -5 -5 -5 -5 -5 -5 -5 -5 -5
-9 -9 -9 -9 -9 -9 -9 -9 -9 -9 -8 -8 -8 -8 -8 -8 -8 -8 -8 -8 -8 -8 -7 -7 -7 -6 -6 -6 -6 -6 -6 -6 -6 -6 -6 -6 -6 -6 -6 -5 -5 -5 -5 -5
-9 -9 -9 -10 -9 -9 -9 -9 -9 -9 -9 -9 -9 -9 -9 -8 -8 -8 -8 -8 -8 -8 -8 -8 -7 -7 -7 -7 -7 -7 -7 -7 -7 -7 -7 -7 -7 -6 -6 -6 -6 -6 -6 -6
-10 -10 -10 -10 -10 -10 -10 -10 -10 -9 -9 -9 -9 -9 -9 -9 -9 -9 -9 -9 -9 -8 -8 -8 -8 -8 -8 -7 -7 -7 -7 -7 -7 -7 -7 -7 -7 -7 -7 -7 -7 -7 -7 -7
-11 -11 -11 -10 -10 -10 -10 -10 -10 -10 -10 -10 -10 -10 -10 -10 -9 -9 -9 -9 -9 -9 -9 -8 -8 -8 -8 -8 -8 -8 -8 -8 -8 -8 -8 -8 -7 -7 -8 -7 -7 -7 -7 -7
-11 -11 -11 -11 -11 -11 -11 -11 -10 -10 -10 -10 -10 -10 -10 -10 -10 -10 -10 -10 -9 -9 -9 -9 -9 -9 -9 -8 -8 -8 -8 -8 -8 -8 -8 -8 -8 -8 -8 -8 -8 -8 -8 -8
-11 -11 -11 -11 -11 -11 -11 -11 -11 -11 -11 -11 -11 -11 -11 -10 -10 -10 -10 -10 -10 -10 -9 -9 -9 -9 -9 -9 -9 -8 -8 -8 -8 -8 -8 -8 -8 -8 -8 -8 -8 -8 -8 -8
-12 -12 -12 -12 -12 -12 -12 -12 -12 -12 -12 -11 -11 -11 -11 -11 -11 -11 -10 -10 -10 -10 -10 -10 -10 -10 -9 -9 -9 -9 -9 -9 -9 -8 -8 -8 -8 -8 -8 -8 -8 -8 -8 -8
-12 -12 -12 -12 -12 -12 -13 -12 -12 -12 -12 -12 -12 -12 -11 -11 -11 -11 -11 -11 -11 -10 -10 -10 -10 -10 -10 -10 -10 -9 -9 -9 -9 -9 -9 -9 -8 -8 -8 -8 -8 -8 -8 -8
Wind_Speed
11 11 8 8 9 7 8 9 9 8 8 8 5 4 4 3 3 3 4 4 4 4 4 3 3 3 2 2 2 4 4 5 5 5 5 5 5 6 6 7 7 7 7 7
9 9 7 9 9 8 9 8 8 7 9 5 4 2 2 3 3 3 4 5 5 5 4 4 3 3 2 2 2 3 4 4 4 4 4 5 5 5 5 6 6 7 7 7
6 5 4 7 6 7 6 4 4 7 8 5 5 5 4 3 3 4 5 5 5 5 4 4 4 3 2 2 1 2 3 3 3 4 4 4 4 5 5 5 5 6 6 6
4 3 7 4 2 3 5 4 3 3 4 5 5 5 3 2 3 4 5 6 6 5 5 4 2 2 2 1 1 1 1 2 3 3 3 3 3 4 5 4 5 5 5 6
4 5 6 3 4 4 4 3 3 4 5 5 4 3 3 3 3 4 5 5 5 4 3 3 2 2 1 1 1 1 1 1 2 3 3 3 3 3 4 4 4 4 5 5
4 4 4 4 8 8 2 2 5 5 5 5 4 2 4 6 6 5 5 4 3 3 2 2 2 2 2 2 1 0 1 1 1 2 3 3 3 3 3 3 3 3 3 4
4 4 2 6 10 5 1 4 7 5 5 4 2 3 5 6 6 4 4 4 3 3 3 2 2 2 2 2 1 1 0 1 1 1 2 2 2 2 3 3 3 3 3 2
2 2 3 8 7 4 4 7 6 5 5 3 3 4 4 5 5 5 5 5 4 3 4 3 3 2 2 2 2 2 1 1 1 1 1 1 2 1 2 3 3 3 3 2
2 2 4 5 5 6 5 6 6 6 6 4 4 5 6 6 6 6 5 5 4 3 4 4 3 2 2 3 2 2 2 2 1 1 1 1 2 2 2 2 2 2 3 3
3 4 7 7 7 8 7 6 6 6 5 4 4 5 5 6 6 6 6 5 4 4 4 5 4 3 3 3 2 2 2 2 1 1 1 1 0 1 2 2 3 2 3 3
4 6 7 7 9 9 9 8 8 8 7 6 5 5 5 5 6 6 6 5 4 4 4 4 4 4 4 3 3 3 2 2 2 1 1 1 0 1 1 2 3 4 3 3
4 6 5 8 9 9 9 9 9 8 8 8 6 6 6 6 6 6 6 5 5 5 5 4 4 5 5 4 3 2 2 2 1 1 1 0 0 1 2 1 1 2 2 3
5 7 6 7 9 10 9 8 8 7 7 7 7 6 6 6 6 6 6 6 6 5 5 4 4 5 5 4 3 3 2 1 1 1 1 0 0 0 1 2 2 1 0 1
6 6 5 7 8 9 8 8 8 8 7 7 7 7 7 6 7 7 7 7 6 5 5 5 4 5 5 4 4 3 2 2 1 1 1 1 0 1 1 1 1 1 1 1
8 7 5 7 8 8 8 8 9 9 9 9 8 8 8 8 7 7 7 7 6 6 6 5 5 5 5 5 4 3 2 2 1 1 1 1 1 1 1 1 1 0 0 0
9 7 7 8 9 10 10 9 9 9 9 9 9 9 9 8 7 7 7 7 7 7 6 6 6 6 5 4 4 3 2 4 3 2 1 1 1 1 0 1 1 1 1 1
8 9 9 10 10 10 9 8 7 8 8 8 9 9 8 8 8 8 8 7 6 6 6 5 6 6 5 4 4 3 2 3 4 3 2 1 1 1 1 1 1 1 1 2
5 5 6 7 7 8 9 8 8 8 8 8 8 8 8 8 8 8 8 7 7 7 6 6 6 6 5 5 3 2 2 2 2 2 2 2 2 1 1 1 1 1 1 1
6 6 7 7 7 6 7 8 8 8 8 8 8 8 7 7 7 7 7 7 8 8 8 8 9 7 5 5 4 2 2 2 2 2 2 3 3 2 1 1 1 1 1 1
8 8 8 8 7 7 7 7 7 7 7 7 7 7 7 7 7 7 7 6 6 6 7 8 7 5 5 5 5 2 2 2 2 2 2 2 2 2 2 1 1 1 1 1
9 9 9 8 8 7 7 7 7 7 7 7 6 7 7 7 7 6 6 6 6 7 8 9 6 5 5 5 5 3 2 2 2 2 2 2 2 2 2 2 2 2 1 1
8 8 8 8 8 8 7 6 6 7 7 7 7 6 7 7 7 6 5 4 6 10 8 5 5 7 8 7 3 3 3 3 3 2 2 2 2 2 2 2 2 2 2 1
7 7 8 8 7 7 7 6 5 6 6 7 7 7 6 6 5 6 6 6 6 10 8 5 8 10 10 5 3 3 3 3 3 3 3 2 3 2 2 2 2 2 2 2
7 7 7 7 6 6 6 7 6 6 6 6 6 6 6 6 5 4 5 9 11 11 6 8 11 10 9 4 3 3 3 3 3 3 3 3 2 2 2 2 2 2 2 2
6 6 6 7 6 6 6 7 7 6 6 5 6 6 5 4 5 6 6 7 10 10 6 8 10 10 6 4 4 3 3 3 3 3 2 2 2 2 2 2 2 2 2 2
5 5 5 5 5 5 5 6 6 6 6 7 6 6 5 5 5 5 5 6 7 9 7 5 5 6 4 4 4 4 4 4 4 3 3 3 3 3 2 2 3 3 3 2
6 5 5 5 5 5 5 5 6 6 6 6 7 7 7 6 6 6 6 6 6 6 5 5 5 4 4 4 4 4 3 3 3 3 3 3 3 3 3 3 3 3 2 2
Wind_Direction
263 272 272 270 270 251 229 222 229 247 247 262 275 272 277 298 319 330 335 334 325 312 310 316 317 306 277 247 208 189 185 192 202 203 197 190 190 190 189 189 192 190 191 190
270 261 262 272 269 253 246 242 241 256 269 281 290 291 314 317 321 317 318 314 312 310 311 309 302 301 298 268 237 188 189 199 197 188 187 188 188 183 181 183 182 182 189 189
271 271 287 266 258 241 239 233 223 245 263 300 305 296 293 298 303 297 301 305 301 297 290 287 287 284 282 270 224 180 193 194 185 183 186 191 188 180 183 186 182 184 187 190
273 282 244 260 314 255 237 253 258 267 291 293 293 295 283 295 293 302 308 303 298 297 297 300 308 314 310 340 143 164 182 190 183 180 183 185 184 191 188 185 187 187 188 192
243 253 267 310 343 326 264 262 346 310 312 321 332 349 337 341 332 306 298 297 296 295 299 321 337 343 11 43 87 118 166 183 190 182 176 177 188 196 188 181 185 187 187 186
234 242 260 304 312 307 240 262 345 337 317 326 358 345 307 332 332 327 327 329 333 342 359 5 355 26 55 44 57 28 234 204 179 176 173 182 199 194 180 171 180 178 181 185
247 247 277 322 322 347 116 300 331 338 328 328 306 276 303 324 334 337 342 347 1 12 13 4 11 44 50 39 8 319 303 116 120 150 168 172 170 167 160 162 161 166 173 188
290 263 295 346 6 20 323 326 333 335 332 332 331 340 343 345 349 357 360 2 10 18 9 6 22 47 40 4 346 10 71 96 105 112 123 129 127 127 147 155 160 171 175 194
277 274 321 342 345 332 335 329 331 334 335 343 349 347 346 348 351 357 1 1 4 14 12 9 17 35 25 343 6 37 67 75 78 89 99 122 147 153 148 154 170 188 187 196
301 315 334 340 345 347 346 337 339 345 344 352 352 348 348 350 353 354 359 359 2 13 13 360 3 14 7 1 21 53 61 55 62 93 94 84 140 175 177 183 188 194 195 197
298 316 332 345 347 346 350 356 3 5 5 2 3 356 352 352 352 351 353 357 3 8 6 354 0 11 7 11 38 47 47 49 48 58 95 82 24 257 221 217 204 200 201 198
293 319 316 315 333 349 354 355 357 359 0 3 6 360 357 354 353 354 356 360 5 6 7 2 6 9 5 9 33 54 48 40 37 36 44 77 54 4 358 286 252 226 225 217
306 320 317 316 338 352 354 354 355 359 1 0 3 3 0 356 357 359 1 2 359 356 358 3 9 7 2 6 19 35 36 24 25 25 20 357 92 95 354 10 25 38 220 236
347 345 334 342 337 344 352 355 359 3 7 7 4 4 5 3 2 4 1 354 353 356 360 5 8 2 358 9 23 26 21 11 13 3 333 306 272 240 220 233 308 360 346 269
353 349 332 331 344 352 357 3 6 3 2 3 5 5 4 2 360 356 354 355 359 4 4 5 3 355 358 8 17 15 7 359 359 348 334 314 293 269 237 217 204 204 57 17
338 348 354 355 353 353 357 1 359 353 354 356 359 359 358 357 356 356 357 0 4 359 355 356 354 349 352 2 9 9 1 351 355 355 347 342 332 312 259 213 206 203 214 222
352 352 350 347 344 344 348 350 349 345 347 349 349 351 355 358 359 359 358 359 359 353 350 351 348 347 351 358 3 358 353 348 350 350 337 328 323 312 286 244 228 230 234 245
339 331 330 331 333 337 341 346 347 345 343 340 344 351 354 355 352 349 349 352 358 0 357 354 349 349 354 355 356 353 352 346 341 333 328 328 326 325 318 293 262 253 258 269
348 345 343 343 341 339 338 338 338 338 338 343 347 347 346 345 345 346 348 354 356 352 347 349 349 353 352 348 351 350 347 342 342 338 332 331 341 344 335 321 305 292 282 274
347 347 347 345 345 342 336 333 335 336 338 341 342 346 347 344 344 345 349 350 343 332 331 338 344 347 345 340 345 347 345 341 340 336 331 327 329 332 333 322 308 300 294 284
341 342 342 341 338 336 333 331 333 332 333 337 340 339 335 335 339 343 346 341 339 339 340 343 348 341 338 338 342 347 340 333 331 324 321 323 325 326 329 327 323 317 309 308
336 336 335 335 334 331 330 330 329 328 333 337 339 340 340 339 341 341 337 327 329 336 341 338 336 335 338 341 348 347 339 332 327 321 317 317 317 318 322 324 322 319 321 319
331 332 332 332 330 325 326 331 334 335 335 335 335 335 334 329 330 330 328 330 331 333 339 333 333 336 341 352 352 343 337 332 326 319 313 310 309 306 303 306 306 305 301 298
333 334 333 331 331 337 339 338 338 336 330 326 328 328 328 327 326 322 314 321 330 332 333 331 336 339 347 358 346 337 328 322 319 315 311 309 307 304 302 301 299 298 295 292
330 329 332 336 340 337 333 334 335 335 334 334 334 334 329 320 314 319 321 322 328 333 332 332 338 342 348 339 333 326 320 313 308 307 307 312 312 309 306 305 302 298 294 288
331 330 326 324 323 326 331 333 333 332 333 334 334 334 332 329 323 322 323 324 326 332 333 327 327 333 332 327 323 319 317 317 321 323 317 309 305 304 305 305 301 293 290 288
329 328 330 333 339 339 335 330 328 328 329 327 325 327 330 331 330 330 328 327 327 328 325 325 325 324 323 323 323 323 323 320 317 315 314 311 307 304 303 300 297 296 294 291
Height
1446 1442 1442 1440 1438 1438 1438 1436 1436 1432 1432 1427 1428 1427 1426 1425 1424 1423 1422 1422 1421 1421 1420 1420 1420 1420 1421 1421 1423 1424 1425 1426 1427 1429 1430 1432 1434 1436 1439 1441 1443 1445 1447 1449
1444 1438 1438 1437 1434 1434 1433 1432 1431 1429 1429 1426 1426 1425 1425 1424 1423 1422 1421 1420 1419 1419 1418 1417 1417 1417 1417 1418 1419 1420 1421 1422 1423 1425 1427 1428 1430 1432 1435 1437 1439 1441 1443 1445
1443 1437 1436 1435 1432 1431 1430 1429 1429 1428 1426 1425 1424 1423 1423 1422 1421 1420 1419 1418 1417 1416 1416 1415 1415 1414 1414 1415 1416 1417 1418 1419 1420 1421 1423 1425 1427 1429 1431 1433 1435 1436 1438 1440
1445 1441 1440 1432 1428 1426 1426 1426 1426 1425 1424 1423 1423 1421 1421 1421 1420 1418 1417 1416 1415 1414 1413 1413 1413 1412 1412 1412 1413 1414 1414 1415 1417 1418 1420 1422 1423 1425 1427 1428 1430 1432 1434 1436
1444 1438 1433 1431 1430 1430 1427 1425 1426 1425 1424 1423 1421 1419 1418 1418 1418 1417 1416 1414 1413 1412 1411 1411 1410 1410 1410 1410 1410 1411 1411 1412 1414 1415 1416 1418 1419 1421 1423 1424 1426 1428 1430 1432
1442 1438 1435 1435 1430 1426 1426 1426 1426 1425 1423 1422 1421 1422 1420 1417 1416 1415 1414 1412 1411 1410 1409 1409 1409 1408 1408 1408 1408 1408 1409 1410 1411 1413 1414 1415 1416 1418 1419 1420 1422 1424 1426 1428
1442 1438 1436 1437 1431 1426 1431 1431 1427 1425 1424 1423 1422 1422 1420 1417 1415 1413 1412 1411 1409 1408 1407 1407 1407 1407 1407 1406 1406 1407 1408 1408 1409 1410 1411 1412 1413 1415 1416 1417 1419 1421 1423 1425
1444 1443 1444 1438 1434 1436 1435 1431 1428 1425 1424 1422 1421 1419 1417 1415 1413 1412 1410 1409 1408 1407 1406 1406 1406 1406 1405 1405 1406 1406 1406 1406 1407 1408 1409 1410 1411 1412 1413 1414 1416 1418 1419 1421
1449 1448 1444 1441 1439 1437 1435 1432 1428 1425 1423 1422 1420 1418 1416 1414 1412 1411 1409 1408 1407 1406 1405 1405 1405 1405 1404 1404 1404 1404 1405 1405 1405 1406 1407 1408 1409 1410 1410 1412 1413 1414 1416 1418
1449 1445 1444 1441 1439 1436 1434 1431 1428 1426 1423 1421 1420 1418 1416 1414 1412 1410 1409 1408 1407 1406 1404 1404 1404 1404 1404 1403 1403 1403 1403 1403 1404 1404 1405 1406 1407 1408 1408 1409 1410 1411 1413 1414
1450 1447 1444 1441 1439 1437 1434 1431 1428 1425 1424 1422 1419 1417 1416 1414 1412 1410 1408 1407 1406 1405 1404 1403 1403 1402 1402 1402 1402 1402 1402 1402 1402 1402 1403 1404 1405 1405 1406 1406 1407 1408 1410 1411
1452 1450 1448 1444 1440 1437 1434 1431 1428 1426 1423 1422 1420 1418 1415 1414 1412 1410 1408 1407 1405 1404 1403 1402 1402 1401 1401 1401 1401 1401 1401 1400 1401 1401 1401 1402 1402 1403 1403 1404 1405 1406 1407 1408
1453 1449 1447 1443 1440 1438 1435 1432 1429 1427 1425 1422 1420 1418 1415 1414 1412 1410 1408 1406 1405 1404 1403 1402 1401 1400 1400 1400 1400 1400 1399 1399 1399 1399 1400 1400 1400 1400 1400 1401 1402 1403 1404 1406
1451 1448 1445 1443 1441 1438 1435 1432 1430 1427 1425 1423 1420 1418 1416 1414 1412 1410 1408 1406 1405 1403 1402 1401 1400 1400 1399 1399 1399 1399 1399 1399 1399 1398 1398 1398 1398 1398 1398 1398 1399 1400 1402 1403
1451 1449 1447 1444 1441 1438 1435 1432 1429 1426 1424 1422 1420 1418 1415 1413 1411 1410 1408 1407 1405 1403 1401 1400 1399 1399 1399 1399 1398 1398 1398 1397 1397 1397 1397 1396 1396 1396 1396 1396 1397 1398 1399 1400
1451 1448 1446 1443 1440 1437 1435 1432 1429 1427 1425 1422 1420 1418 1416 1414 1412 1410 1408 1406 1404 1402 1401 1400 1399 1399 1398 1398 1397 1397 1396 1396 1396 1395 1395 1394 1394 1394 1394 1395 1395 1396 1397 1398
1451 1448 1445 1443 1440 1438 1435 1433 1431 1428 1426 1423 1420 1418 1416 1414 1411 1409 1408 1406 1404 1403 1401 1400 1399 1398 1398 1397 1396 1396 1395 1394 1394 1394 1393 1393 1392 1392 1393 1393 1393 1394 1395 1396
1453 1450 1447 1444 1441 1438 1435 1433 1431 1428 1426 1424 1421 1418 1416 1414 1412 1410 1408 1406 1404 1402 1401 1400 1398 1397 1397 1396 1395 1394 1394 1393 1392 1392 1392 1391 1391 1391 1391 1391 1392 1392 1393 1394
1451 1449 1446 1444 1441 1438 1435 1433 1431 1428 1426 1423 1421 1418 1416 1414 1412 1410 1408 1405 1403 1401 1400 1399 1398 1396 1395 1395 1394 1393 1392 1391 1391 1390 1390 1390 1389 1389 1389 1390 1390 1390 1390 1391
1450 1447 1445 1442 1440 1437 1435 1432 1430 1428 1426 1423 1420 1418 1416 1414 1412 1410 1407 1405 1404 1402 1400 1398 1396 1395 1394 1393 1393 1392 1391 1390 1389 1389 1388 1388 1387 1387 1387 1388 1388 1388 1388 1388
1448 1446 1443 1440 1438 1436 1434 1432 1429 1427 1425 1423 1420 1417 1415 1413 1411 1409 1406 1404 1403 1401 1399 1397 1395 1394 1393 1392 1391 1390 1389 1389 1388 1387 1387 1386 1386 1385 1385 1386 1385 1385 1386 1386
1447 1444 1442 1439 1436 1434 1432 1430 1428 1426 1424 1421 1419 1417 1415 1412 1410 1408 1406 1405 1402 1400 1398 1396 1394 1393 1392 1391 1390 1389 1388 1387 1387 1386 1385 1385 1384 1384 1384 1384 1383 1383 1383 1383
1446 1444 1441 1438 1435 1432 1430 1428 1426 1424 1422 1420 1418 1416 1414 1412 1410 1407 1405 1403 1401 1399 1396 1394 1393 1391 1390 1389 1388 1387 1387 1386 1385 1385 1384 1383 1383 1383 1382 1382 1381 1381 1381 1381
1445 1442 1440 1437 1434 1431 1429 1427 1425 1423 1421 1419 1417 1415 1413 1410 1408 1406 1404 1402 1400 1397 1395 1393 1392 1390 1389 1387 1387 1386 1385 1384 1384 1383 1383 1382 1382 1381 1381 1380 1380 1379 1379 1379
1444 1441 1438 1435 1433 1430 1428 1426 1424 1421 1419 1417 1415 1413 1411 1409 1407 1404 1402 1400 1398 1396 1394 1392 1390 1389 1387 1386 1385 1384 1383 1383 1382 1381 1381 1380 1380 1379 1379 1378 1378 1377 1377 1377
1442 1440 1437 1435 1432 1430 1428 1425 1423 1420 1418 1415 1413 1412 1410 1408 1405 1403 1400 1398 1396 1394 1392 1390 1389 1387 1386 1385 1384 1383 1382 1381 1381 1380 1379 1379 1378 1378 1377 1376 1376 1375 1375 1375
1441 1438 1436 1434 1431 1429 1427 1424 1422 1419 1417 1414 1412 1410 1408 1406 1403 1401 1399 1397 1394 1392 1391 1389 1387 1386 1385 1383 1382 1381 1380 1380 1379 1378 1378 1377 1377 1376 1375 1375 1374 1374 1373 1373